[[{"header":{"parameterUnit":"m.s-1","parameterCategory":1,"la1":30.2991,"la2":30.254,"lo1":-89.0895,"lo2":-89.0444,"dy":0.0017,"dx":0.0017,"nx":28,"ny":28,"refTime":"2024-04-27T21:00:00:Z","depth":0,"parameterNumber":2,"parameterNumberName":"U-component_of_WINDS"},"data":[0,0,0,0,0,0,0,0,0,0,0,0,0,0,0,0,0,0,0,0,0,0,0,0,0,0,0,0,0,0,0,0,0,0,0,0,0,0,0,0,0,0,0,0,0,0,0,0,0,0,0,0,0,0,0,0,0,0,-7.831,-7.8311,0,-7.8386,-7.8387,-7.8388,-7.8286,-7.8283,-7.8279,-7.8276,-7.8349,-7.8354,-7.836,0,0,0,0,0,0,0,0,0,0,0,0,0,-7.8074,-7.8078,-7.831,-7.8311,-7.8312,-7.8386,-7.8387,-7.8388,-7.8287,-7.8283,-7.8278,-7.8274,-7.8347,-7.8354,-7.836,0,0,0,0,0,0,0,0,0,0,0,0,0,-7.8165,-7.808,-7.831,-7.8271,-7.8268,-7.8386,-7.8387,-7.8388,-7.8288,-7.8283,-7.8277,-7.8272,-7.8345,-7.8353,-7.8361,-7.8519,0,0,-7.8385,-7.8389,0,0,0,0,0,0,0,0,-7.816,-7.8174,-7.8275,-7.8273,-7.8271,-7.8321,-7.833,-7.8432,-7.8289,-7.828,-7.8276,-7.8269,-7.8344,-7.8352,-7.8378,-7.8523,-7.8526,-7.8386,-7.8391,-7.8394,-7.8397,0,0,0,0,0,0,0,-7.8154,-7.817,-7.834,-7.8277,-7.8274,-7.8248,-7.8255,-7.8349,-7.8341,-7.8281,-7.8273,-7.8284,-7.8341,-7.837,-7.8379,-7.8527,-7.8386,-7.8393,-7.8398,-7.8401,-7.8804,-7.8809,0,0,0,0,0,0,-7.8153,-7.8166,-7.8337,-7.8342,-7.8201,-7.8257,-7.8264,-7.831,-7.834,-7.834,-7.8289,-7.8279,-7.8359,-7.8369,-7.8381,-7.8566,-7.8394,-7.8402,-7.8406,-7.8798,-7.8805,-7.8812,0,0,0,0,0,0,-7.8148,-7.8169,-7.8334,-7.8252,-7.8271,-7.8267,-7.8319,-7.8315,-7.8343,-7.8346,-7.8344,-7.832,-7.8355,-7.837,-7.8485,-7.8567,-7.8405,-7.8413,-7.8791,-7.88,-7.8808,-7.8938,0,0,0,0,0,0,-7.8142,-7.8168,-7.8229,-7.8254,-7.8276,-7.8439,-7.8324,-7.832,-7.8358,-7.8346,-7.8375,-7.8374,-7.8352,-7.8474,-7.8494,-7.8575,-7.8419,-7.8784,-7.8795,-7.8806,-7.8927,-7.8951,-7.8971,0,0,0,0,0,-7.8134,-7.8262,-7.8233,-7.8254,-7.8352,-7.8444,-7.8456,-7.8429,-7.8365,-7.8425,-7.8427,-7.8373,-7.8556,-7.8487,-7.8508,-7.8593,-7.8778,-7.8792,-7.8805,-7.8917,-7.8946,-7.8971,0,0,0,0,0,0,-7.8244,-7.8264,-7.8232,-7.8372,-7.8408,-7.8427,-7.8501,-7.8461,-7.8514,-7.85,-7.8464,-7.8471,-7.8595,-7.8606,-7.8528,-7.8747,-7.8656,-7.8674,-7.8734,-7.8762,-7.8784,-7.8776,-7.8426,0,0,0,0,0,-7.8286,-7.836,-7.8373,-7.8495,-7.8515,-7.8506,-7.8545,-7.8522,-7.8556,-7.8569,-7.858,-7.8614,-7.8678,-7.8722,-7.8782,-7.893,-7.8933,-7.8999,-7.9021,-7.9039,-7.9054,-7.9131,-7.9159,-7.8855,-7.8855,-7.8855,0,0,-7.837,-7.839,-7.8439,-7.8518,-7.8542,-7.8618,-7.8519,-7.8603,-7.8659,-7.8582,-7.8691,-7.8701,-7.8736,-7.8868,-7.8927,-7.8881,-7.9139,-7.9056,-7.9071,-7.9075,-7.9147,-7.9176,-7.9201,-7.8864,-7.8863,-7.8861,0,0,-7.8562,-7.8587,-7.869,-7.8717,-7.8756,-7.875,-7.8775,-7.8801,-7.8805,-7.8915,-7.8858,-7.8924,-7.9037,-7.9064,-7.9092,-7.9298,-7.9249,-7.9319,-7.9433,-7.9508,-7.9532,-7.9553,-7.9623,-7.9648,-7.9334,-7.9335,-7.9335,0,-7.8661,-7.8774,-7.8748,-7.8837,-7.8872,-7.8809,-7.8913,-7.894,-7.8996,-7.9022,-7.8971,-7.9111,-7.9131,-7.9267,-7.9318,-7.9345,-7.937,-7.9313,-7.9531,-7.9552,-7.9571,-7.9637,-7.9664,-7.9343,-7.9342,-7.9341,-7.934,0,-7.8893,-7.8973,-7.9052,-7.9109,-7.9154,-7.925,-7.9237,-7.9286,-7.926,-7.9259,-7.9371,-7.9393,-7.9456,-7.9488,-7.9463,-7.9621,-7.9591,-7.9537,-7.9444,-7.9608,-7.9669,-7.9695,-7.9354,-7.9351,-7.9349,-7.9347,0,0,-7.9152,-7.9195,-7.9224,-7.9249,-7.9289,-7.9349,-7.9443,-7.9505,-7.9546,-7.9589,-7.9664,-7.9763,-7.9713,-7.9746,-7.9724,-7.9791,-7.9948,-7.9728,-7.9728,-7.9764,-8.012,-8.0157,-8.0187,-7.9919,-7.9924,-7.9927,-8.0116,0,-7.9341,-7.9502,-7.9482,-7.9636,-7.9708,-7.9651,-7.9732,-7.9764,-7.9767,-7.9827,-7.9829,-7.9898,-7.9829,-7.9848,-7.9913,-7.9915,-8.0018,-7.9902,-7.9985,-7.9988,-7.9973,-8.022,-8.0259,-8.0436,-8.014,-8.0144,-8.0147,0,-7.9581,-7.9633,-7.9795,-7.9823,-7.9853,-7.9926,-7.9982,-8.0042,-8.0077,-8.0074,-8.0112,-8.0079,-8.0171,-8.0081,-8.0205,-8.0127,-8.016,-8.0167,-8.0173,-8.0176,-8.0074,-8.0225,-8.0492,-8.0517,-8.0185,-8.0182,-8.018,0,-7.9749,-7.986,-7.997,-7.9994,-8.0031,-8.0083,-8.0101,-8.0131,-8.0171,-8.022,-8.0244,-8.0304,-8.0335,-8.0382,-8.0365,-8.0301,-8.0492,-8.0401,-8.0489,-8.0489,-8.0527,-8.0524,-8.0799,-8.0557,-8.0557,-8.0556,-8.0556,0,-7.9959,-8.0059,-8.0046,-8.0113,-8.0223,-8.02,-8.031,-8.032,-8.0348,-8.0416,-8.0371,-8.0435,-8.0411,-8.0474,-8.0462,-8.0565,-8.0581,-8.0579,-8.0573,-8.058,-8.0579,-8.0597,-8.0583,-8.0563,-8.0562,-8.056,-8.0559,0,-8.0162,-8.0158,-8.0274,-8.0301,-8.031,-8.039,-8.0411,-8.0474,-8.0475,-8.056,-8.0579,-8.0579,-8.065,-8.064,-8.0719,-8.071,-8.0838,-8.082,-8.0826,-8.082,-8.0907,-8.0897,-8.1199,-8.1236,-8.0975,-8.0978,-8.098,0,-8.0294,-8.037,-8.0405,-8.0448,-8.047,-8.0539,-8.0579,-8.056,-8.0604,-8.0651,-8.0708,-8.0776,-8.0828,-8.0944,-8.095,-8.101,-8.099,-8.1092,-8.0998,-8.1003,-8.0987,-8.0981,-8.0987,-8.1109,-8.1112,-8.1114,-8.1116,0,-8.0527,-8.0522,-8.0582,-8.0643,-8.0692,-8.0739,-8.078,-8.0817,-8.0802,-8.0853,-8.0926,-8.0967,-8.1049,-8.1115,-8.1172,-8.1189,-8.1149,-8.1147,-8.1169,-8.1174,-8.1173,-8.1171,-8.0871,-8.1138,-8.1136,-8.1134,-8.1133,-8.1132,-8.0695,-8.0759,-8.0795,-8.0863,-8.0893,-8.0934,-8.0994,-8.1003,-8.1064,-8.1129,-8.1114,-8.1196,-8.123,-8.1302,-8.1326,-8.1388,-8.1351,-8.1385,-8.1392,-8.14,-8.1408,-8.1168,-8.1399,-8.1399,-8.1398,-8.1398,-8.1397,0,-8.0922,-8.0943,-8.1007,-8.1067,-8.1121,-8.1084,-8.1128,-8.1175,-8.1248,-8.1284,-8.1337,-8.1421,-8.1486,-8.1499,-8.156,-8.1608,-8.1591,-8.1624,-8.1618,-8.1622,-8.144,-8.1413,-8.1637,-8.1637,-8.1636,-8.1636,-8.1636,-8.1636,-8.1046,-8.1152,-8.1152,-8.1272,-8.1291,-8.1372,-8.14,-8.1437,-8.1465,-8.1561,-8.1615,-8.1624,-8.165,-8.1714,-8.1771,-8.1773,-8.1796,-8.1835,-8.183,-8.1659,-8.1635,-8.1612,-8.1585,-8.1842,-8.1842,-8.2005,-8.2007,-8.2008]},{"header":{"parameterUnit":"m.s-1","parameterCategory":1,"la1":30.2991,"la2":30.254,"lo1":-89.0895,"lo2":-89.0444,"dy":0.0017,"dx":0.0017,"nx":28,"ny":28,"refTime":"2024-04-27T21:00:00:Z","depth":0,"parameterNumber":3,"parameterNumberName":"V-component_of_WINDS"},"data":[0,0,0,0,0,0,0,0,0,0,0,0,0,0,0,0,0,0,0,0,0,0,0,0,0,0,0,0,0,0,0,0,0,0,0,0,0,0,0,0,0,0,0,0,0,0,0,0,0,0,0,0,0,0,0,0,0,0,3.9059,3.9059,0,3.9077,3.9077,3.9077,3.9024,3.9023,3.9021,3.9019,3.9035,3.9037,3.9039,0,0,0,0,0,0,0,0,0,0,0,0,0,3.8979,3.8981,3.9059,3.9059,3.906,3.9077,3.9077,3.9077,3.9024,3.9023,3.9021,3.9019,3.9034,3.9036,3.9039,0,0,0,0,0,0,0,0,0,0,0,0,0,3.9007,3.8981,3.9059,3.9035,3.9033,3.9076,3.9077,3.9077,3.9025,3.9022,3.902,3.9018,3.9033,3.9036,3.9039,3.9105,0,0,3.9048,3.9049,0,0,0,0,0,0,0,0,3.9005,3.901,3.9039,3.9037,3.9035,3.9046,3.9054,3.9086,3.9025,3.9028,3.9019,3.9017,3.904,3.9042,3.9051,3.9106,3.9106,3.9048,3.905,3.9051,3.9052,0,0,0,0,0,0,0,3.9004,3.9009,3.9066,3.9039,3.9037,3.9024,3.9025,3.906,3.9047,3.9028,3.9024,3.9027,3.9039,3.9048,3.9051,3.9107,3.9048,3.9051,3.9052,3.9053,3.9218,3.922,0,0,0,0,0,0,3.9005,3.9008,3.9065,3.9066,3.9014,3.9027,3.9028,3.9045,3.9047,3.9045,3.9029,3.9024,3.9045,3.9048,3.9051,3.9129,3.9051,3.9054,3.9055,3.9215,3.9218,3.9221,0,0,0,0,0,0,3.9003,3.9011,3.9065,3.9036,3.9042,3.9031,3.905,3.9046,3.9056,3.9048,3.9045,3.9041,3.9043,3.9047,3.9092,3.9129,3.9055,3.9058,3.9212,3.9216,3.922,3.9284,0,0,0,0,0,0,3.9001,3.901,3.9035,3.9037,3.9044,3.9106,3.9052,3.9048,3.9061,3.9055,3.9058,3.9057,3.9041,3.9088,3.9095,3.9131,3.906,3.9208,3.9214,3.9218,3.9279,3.929,3.93,0,0,0,0,0,3.8999,3.9052,3.9037,3.9044,3.9075,3.9108,3.9112,3.9094,3.9064,3.9089,3.9084,3.9056,3.9124,3.9094,3.9101,3.9138,3.9206,3.9212,3.9218,3.9274,3.9288,3.9299,0,0,0,0,0,0,3.9053,3.9051,3.9035,3.909,3.91,3.9099,3.913,3.9109,3.9126,3.912,3.9096,3.9097,3.9147,3.9147,3.9113,3.9203,3.916,3.9168,3.92,3.9213,3.9223,3.9222,3.9062,0,0,0,0,0,3.9072,3.91,3.9097,3.9146,3.9152,3.914,3.9154,3.914,3.9148,3.9152,3.915,3.9159,3.9182,3.9198,3.9219,3.928,3.928,3.9309,3.9319,3.9328,3.9334,3.9367,3.938,3.9241,3.9241,3.924,0,0,3.911,3.9113,3.9131,3.9157,3.9163,3.9192,3.9144,3.9176,3.9197,3.9156,3.9199,3.9199,3.9207,3.9261,3.9284,3.9263,3.9373,3.9336,3.9342,3.9344,3.9375,3.9388,3.94,3.9245,3.9244,3.9243,0,0,3.9194,3.9199,3.9241,3.9249,3.9259,3.9252,3.9262,3.9265,3.9264,3.9307,3.9277,3.9302,3.9343,3.935,3.9359,3.945,3.9425,3.9458,3.9511,3.9543,3.9554,3.9564,3.9596,3.9608,3.9465,3.9465,3.9465,0,3.924,3.9283,3.9265,3.9301,3.9313,3.9279,3.9322,3.933,3.9346,3.9355,3.9331,3.9382,3.9386,3.9441,3.9463,3.9472,3.9483,3.9456,3.9554,3.9564,3.9573,3.9603,3.9615,3.9469,3.9468,3.9468,3.9467,0,3.9339,3.937,3.9403,3.9421,3.9437,3.9476,3.9464,3.9482,3.9468,3.9463,3.9508,3.9511,3.9533,3.9545,3.953,3.9599,3.9585,3.9559,3.9515,3.959,3.9618,3.963,3.9474,3.9473,3.9472,3.9471,0,0,3.9455,3.9465,3.9477,3.9486,3.9496,3.9519,3.9557,3.958,3.9596,3.9609,3.964,3.9677,3.9653,3.9663,3.9649,3.9678,3.975,3.9648,3.9648,3.9666,3.9826,3.9846,3.9859,3.9735,3.9737,3.9739,3.9825,0,3.9538,3.9603,3.959,3.9654,3.9682,3.9653,3.9686,3.9695,3.9693,3.9716,3.9713,3.9739,3.9705,3.9712,3.9739,3.9736,3.9782,3.9729,3.9762,3.9764,3.976,3.9874,3.9894,3.9976,3.9836,3.9838,3.984,0,3.9642,3.9662,3.9729,3.9737,3.9748,3.9778,3.9798,3.9822,3.9833,3.9829,3.9842,3.9824,3.9861,3.9819,3.987,3.9835,3.9848,3.9849,3.9852,3.9853,3.9805,3.9878,4.0001,4.0014,3.9857,3.9855,3.9854,0,3.972,3.9763,3.9809,3.9817,3.9827,3.9849,3.9854,3.9863,3.9878,3.9896,3.9906,3.9928,3.9939,3.9956,3.9944,3.9915,3.9998,3.9954,3.9995,3.9996,4.0012,4.0011,4.0139,4.0023,4.0023,4.0023,4.0022,0,3.9813,3.9856,3.9844,3.9872,3.9919,3.9904,3.9951,3.9952,3.9961,3.9989,3.9964,3.9991,3.9974,3.9999,3.999,4.0034,4.004,4.0037,4.0034,4.0039,4.0039,4.0046,4.0039,4.0026,4.0025,4.0024,4.0024,0,3.9907,3.9901,3.9949,3.9956,3.9959,3.9993,3.9998,4.0025,4.0022,4.0057,4.0065,4.0059,4.0088,4.0078,4.0108,4.0102,4.0159,4.0148,4.0155,4.0152,4.0193,4.0189,4.0329,4.0347,4.022,4.0221,4.0222,0,3.9966,3.9998,4.0009,4.0027,4.0035,4.0063,4.0079,4.0066,4.0084,4.01,4.0125,4.0152,4.0172,4.022,4.0218,4.0241,4.0231,4.0279,4.0234,4.0238,4.0231,4.0229,4.0232,4.0287,4.0288,4.0289,4.029,0,4.0072,4.0068,4.0093,4.0117,4.0137,4.0156,4.0171,4.0187,4.0175,4.0196,4.0226,4.0243,4.0275,4.0302,4.0324,4.0328,4.0307,4.0305,4.0315,4.032,4.0322,4.0321,4.0178,4.0301,4.03,4.0299,4.0299,4.0298,4.0149,4.0177,4.019,4.0219,4.023,4.0246,4.0272,4.0273,4.0298,4.0324,4.0315,4.0349,4.0361,4.0388,4.0396,4.0423,4.0404,4.042,4.0423,4.0427,4.0432,4.032,4.0427,4.0426,4.0426,4.0426,4.0426,0,4.0254,4.0261,4.0288,4.0312,4.0335,4.0316,4.0333,4.0353,4.0384,4.0398,4.042,4.0455,4.0481,4.0483,4.0508,4.0529,4.052,4.0536,4.0534,4.0535,4.0447,4.0436,4.0543,4.0543,4.0543,4.0543,4.0543,4.0543,4.031,4.0357,4.0355,4.0407,4.0414,4.0449,4.0461,4.0475,4.0486,4.0527,4.055,4.0551,4.056,4.0586,4.061,4.061,4.062,4.0639,4.0635,4.0553,4.0541,4.053,4.0519,4.0641,4.0641,4.072,4.0721,4.0721]}]]